| time (UTC) | temp F | wind direction | speed MPH | gust MPH | rain 1hr in | rain 24hr in | rain mn in | humidity % | barometer mb |
| 20260504224544 | 80 | 40 | 2.0 | 6.0 | 0.00 | 0.00 | 0.00 | 48 | 1007.4 |
| 20260504224029 | 80 | 39 | 1.0 | 6.0 | 0.00 | 0.00 | 0.00 | 48 | 1007.4 |
| 20260504223529 | 80 | 39 | 1.0 | 6.0 | 0.00 | 0.00 | 0.00 | 48 | 1007.5 |
| 20260504223042 | 80 | 40 | 2.0 | 6.0 | 0.00 | 0.00 | 0.00 | 48 | 1007.6 |
| 20260504222528 | 80 | 40 | 1.0 | 6.0 | 0.00 | 0.00 | 0.00 | 47 | 1007.6 |
| 20260504222028 | 80 | 40 | 1.0 | 8.0 | 0.00 | 0.00 | 0.00 | 48 | 1007.7 |
| 20260504221542 | 80 | 40 | 2.0 | 8.0 | 0.00 | 0.00 | 0.00 | 47 | 1007.7 |
| 20260504221029 | 80 | 40 | 2.0 | 8.0 | 0.00 | 0.00 | 0.00 | 47 | 1007.6 |
| 20260504220529 | 80 | 40 | 2.0 | 10.0 | 0.00 | 0.00 | 0.00 | 48 | 1007.6 |
| 20260504220041 | 80 | 40 | 3.0 | 10.0 | 0.00 | 0.00 | 0.00 | 48 | 1007.8 |
| 20260504215530 | 80 | 40 | 2.0 | 7.0 | 0.00 | 0.00 | 0.00 | 47 | 1007.8 |
| 20260504215029 | 80 | 40 | 2.0 | 7.0 | 0.00 | 0.00 | 0.00 | 47 | 1007.8 |
| 20260504214540 | 80 | 40 | 2.0 | 9.0 | 0.00 | 0.00 | 0.00 | 48 | 1007.9 |
| 20260504214028 | 81 | 39 | 2.0 | 9.0 | 0.00 | 0.00 | 0.00 | 47 | 1007.9 |
| 20260504213529 | 81 | 40 | 3.0 | 9.0 | 0.00 | 0.00 | 0.00 | 47 | 1008.0 |
| 20260504213048 | 81 | 39 | 2.0 | 7.0 | 0.00 | 0.00 | 0.00 | 46 | 1008.1 |
| 20260504212529 | 81 | 40 | 3.0 | 9.0 | 0.00 | 0.00 | 0.00 | 47 | 1008.1 |
| 20260504212030 | 81 | 39 | 3.0 | 9.0 | 0.00 | 0.00 | 0.00 | 46 | 1008.3 |
| 20260504211542 | 81 | 39 | 2.0 | 8.0 | 0.00 | 0.00 | 0.00 | 46 | 1008.3 |
| 20260504211029 | 81 | 40 | 2.0 | 9.0 | 0.00 | 0.00 | 0.00 | 46 | 1008.6 |
| 20260504210530 | 81 | 40 | 2.0 | 9.0 | 0.00 | 0.00 | 0.00 | 46 | 1008.7 |
| 20260504210042 | 81 | 40 | 2.0 | 9.0 | 0.00 | 0.00 | 0.00 | 46 | 1008.6 |
| 20260504205528 | 81 | 39 | 3.0 | 9.0 | 0.00 | 0.00 | 0.00 | 46 | 1008.6 |
| 20260504205028 | 81 | 39 | 2.0 | 9.0 | 0.00 | 0.00 | 0.00 | 47 | 1008.7 |
| 20260504204540 | 81 | 39 | 2.0 | 9.0 | 0.00 | 0.00 | 0.00 | 47 | 1008.9 |
| 20260504204028 | 81 | 0 | 1.0 | 9.0 | 0.00 | 0.00 | 0.00 | 47 | 1009.1 |
| 20260504203528 | 81 | 39 | 3.0 | 9.0 | 0.00 | 0.00 | 0.00 | 45 | 1009.1 |
| 20260504203046 | 81 | 0 | 1.0 | 8.0 | 0.00 | 0.00 | 0.00 | 46 | 1009.2 |
| 20260504202531 | 81 | 39 | 2.0 | 8.0 | 0.00 | 0.00 | 0.00 | 47 | 1009.3 |
| 20260504202028 | 81 | 39 | 2.0 | 9.0 | 0.00 | 0.00 | 0.00 | 46 | 1009.5 |
| 20260504201545 | 81 | 39 | 3.0 | 10.0 | 0.00 | 0.00 | 0.00 | 45 | 1009.6 |
| 20260504201029 | 81 | 39 | 2.0 | 10.0 | 0.00 | 0.00 | 0.00 | 48 | 1009.6 |
| 20260504200532 | 81 | 39 | 3.0 | 10.0 | 0.00 | 0.00 | 0.00 | 46 | 1009.8 |
| 20260504200045 | 81 | 39 | 3.0 | 10.0 | 0.00 | 0.00 | 0.00 | 46 | 1009.8 |
| 20260504195528 | 81 | 39 | 2.0 | 8.0 | 0.00 | 0.00 | 0.00 | 45 | 1009.9 |
| 20260504195030 | 81 | 39 | 2.0 | 8.0 | 0.00 | 0.00 | 0.00 | 46 | 1010.1 |
| 20260504194545 | 81 | 39 | 2.0 | 7.0 | 0.00 | 0.00 | 0.00 | 46 | 1010.4 |
| 20260504194029 | 81 | 0 | 1.0 | 7.0 | 0.00 | 0.00 | 0.00 | 47 | 1010.5 |
| 20260504193529 | 81 | 40 | 1.0 | 7.0 | 0.00 | 0.00 | 0.00 | 47 | 1010.5 |
| 20260504193042 | 80 | 40 | 2.0 | 9.0 | 0.00 | 0.00 | 0.00 | 48 | 1010.5 |
| 20260504192528 | 80 | 40 | 1.0 | 9.0 | 0.00 | 0.00 | 0.00 | 47 | 1010.5 |
| 20260504192028 | 80 | 40 | 1.0 | 9.0 | 0.00 | 0.00 | 0.00 | 48 | 1010.4 |
| 20260504191605 | 79 | 40 | 3.0 | 12.0 | 0.00 | 0.00 | 0.00 | 47 | 1010.6 |
| 20260504191029 | 79 | 40 | 2.0 | 12.0 | 0.00 | 0.00 | 0.00 | 48 | 1010.6 |
| 20260504190531 | 79 | 40 | 1.0 | 9.0 | 0.00 | 0.00 | 0.00 | 46 | 1010.8 |
| 20260504190049 | 79 | 40 | 1.0 | 9.0 | 0.00 | 0.00 | 0.00 | 46 | 1010.8 |
| 20260504185529 | 80 | 39 | 2.0 | 9.0 | 0.00 | 0.00 | 0.00 | 46 | 1010.9 |
| 20260504185031 | 79 | 40 | 2.0 | 7.0 | 0.00 | 0.00 | 0.00 | 47 | 1010.8 |
| 20260504184548 | 79 | 40 | 2.0 | 7.0 | 0.00 | 0.00 | 0.00 | 47 | 1010.9 |
| 20260504184029 | 79 | 40 | 1.0 | 7.0 | 0.00 | 0.00 | 0.00 | 48 | 1010.8 |
| 20260504183528 | 79 | 0 | 2.0 | 10.0 | 0.00 | 0.00 | 0.00 | 47 | 1010.9 |
| 20260504183047 | 78 | 40 | 1.0 | 10.0 | 0.00 | 0.00 | 0.00 | 47 | 1010.9 |
| 20260504182528 | 78 | 40 | 3.0 | 10.0 | 0.00 | 0.00 | 0.00 | 47 | 1011.0 |
| 20260504182029 | 78 | 40 | 2.0 | 6.0 | 0.00 | 0.00 | 0.00 | 47 | 1011.2 |
| 20260504181551 | 78 | 40 | 1.0 | 7.0 | 0.00 | 0.00 | 0.00 | 47 | 1011.1 |
| 20260504181029 | 78 | 40 | 2.0 | 7.0 | 0.00 | 0.00 | 0.00 | 47 | 1011.3 |
| 20260504180531 | 78 | 40 | 2.0 | 9.0 | 0.00 | 0.00 | 0.00 | 47 | 1011.3 |
| 20260504180039 | 78 | 40 | 2.0 | 9.0 | 0.00 | 0.00 | 0.00 | 46 | 1011.5 |
| 20260504175529 | 78 | 0 | 2.0 | 10.0 | 0.00 | 0.00 | 0.00 | 47 | 1011.4 |
| 20260504175028 | 78 | 40 | 3.0 | 10.0 | 0.00 | 0.00 | 0.00 | 46 | 1011.6 |
| 20260504174539 | 78 | 40 | 1.0 | 10.0 | 0.00 | 0.00 | 0.00 | 47 | 1011.6 |
| 20260504174030 | 77 | 40 | 3.0 | 10.0 | 0.00 | 0.00 | 0.00 | 46 | 1011.7 |
| 20260504173529 | 77 | 40 | 2.0 | 10.0 | 0.00 | 0.00 | 0.00 | 46 | 1011.7 |
| 20260504173040 | 77 | 40 | 2.0 | 9.0 | 0.00 | 0.00 | 0.00 | 46 | 1011.7 |
| 20260504172529 | 77 | 40 | 2.0 | 7.0 | 0.00 | 0.00 | 0.00 | 46 | 1011.8 |
| 20260504172029 | 77 | 40 | 2.0 | 7.0 | 0.00 | 0.00 | 0.00 | 45 | 1012.0 |
| 20260504171547 | 77 | 40 | 3.0 | 6.0 | 0.00 | 0.00 | 0.00 | 45 | 1012.1 |
| 20260504171029 | 77 | 40 | 1.0 | 6.0 | 0.00 | 0.00 | 0.00 | 45 | 1012.2 |
| 20260504170529 | 77 | 40 | 1.0 | 6.0 | 0.00 | 0.00 | 0.00 | 45 | 1012.3 |
| 20260504151033 | 71 | 40 | 3.0 | 7.0 | 0.00 | 0.00 | 0.00 | 52 | 1013.2 |
| 20260504150529 | 71 | 40 | 2.0 | 7.0 | 0.00 | 0.00 | 0.00 | 52 | 1013.4 |
| 20260504141029 | 66 | 40 | 1.0 | 5.0 | 0.00 | 0.00 | 0.00 | 56 | 1013.7 |
| 20260504140532 | 65 | 40 | 1.0 | 5.0 | 0.00 | 0.00 | 0.00 | 56 | 1013.7 |
| 20260504130532 | 61 | 40 | 0.0 | 3.0 | 0.00 | 0.00 | 0.00 | 62 | 1013.8 |
| 20260504110529 | 56 | 0 | 0.0 | 0.0 | 0.00 | 0.00 | 0.00 | 65 | 1013.6 |
| 20260504100530 | 57 | 0 | 0.0 | 0.0 | 0.00 | 0.00 | 0.00 | 63 | 1013.9 |
| 20260504090104 | 59 | 0 | 0.0 | 0.0 | 0.00 | 0.00 | 0.00 | 61 | 1014.2 |
| 20260504081547 | 61 | 0 | 0.0 | 0.0 | 0.00 | 0.00 | 0.00 | 60 | 1014.4 |
| 20260504081029 | 61 | 0 | 0.0 | 0.0 | 0.00 | 0.00 | 0.00 | 59 | 1014.4 |
| 20260504080529 | 61 | 0 | 0.0 | 0.0 | 0.00 | 0.00 | 0.00 | 59 | 1014.5 |
| 20260504050530 | 61 | 0 | 0.0 | 0.0 | 0.00 | 0.00 | 0.00 | 56 | 1015.8 |
| 20260504045529 | 62 | 0 | 0.0 | 0.0 | 0.00 | 0.00 | 0.00 | 56 | 1016.0 |
| 20260504045029 | 62 | 0 | 0.0 | 0.0 | 0.00 | 0.00 | 0.00 | 55 | 1016.0 |
| 20260504044614 | 62 | 0 | 0.0 | 0.0 | 0.00 | 0.00 | 0.00 | 55 | 1016.0 |
| 20260504044030 | 62 | 0 | 0.0 | 0.0 | 0.00 | 0.00 | 0.00 | 55 | 1016.0 |
| 20260504043529 | 62 | 0 | 0.0 | 0.0 | 0.00 | 0.00 | 0.00 | 55 | 1016.2 |
| 20260504043049 | 62 | 0 | 0.0 | 0.0 | 0.00 | 0.00 | 0.00 | 54 | 1016.2 |
| 20260504042528 | 63 | 0 | 0.0 | 0.0 | 0.00 | 0.00 | 0.00 | 54 | 1016.2 |
| 20260504042030 | 63 | 0 | 0.0 | 0.0 | 0.00 | 0.00 | 0.00 | 54 | 1016.2 |
| 20260504041542 | 63 | 0 | 0.0 | 0.0 | 0.00 | 0.00 | 0.00 | 54 | 1016.2 |
| 20260504041028 | 63 | 0 | 0.0 | 0.0 | 0.00 | 0.00 | 0.00 | 53 | 1016.3 |
| 20260504040528 | 63 | 0 | 0.0 | 0.0 | 0.00 | 0.00 | 0.00 | 53 | 1016.2 |
| 20260504040053 | 63 | 0 | 0.0 | 0.0 | 0.00 | 0.00 | 0.00 | 53 | 1016.3 |
| 20260504035529 | 63 | 0 | 0.0 | 0.0 | 0.00 | 0.00 | 0.00 | 52 | 1016.3 |
| 20260504035030 | 63 | 0 | 0.0 | 0.0 | 0.00 | 0.00 | 0.00 | 52 | 1016.3 |
| 20260504034540 | 63 | 0 | 0.0 | 0.0 | 0.00 | 0.00 | 0.00 | 52 | 1016.3 |
| 20260504034030 | 63 | 0 | 0.0 | 0.0 | 0.00 | 0.00 | 0.00 | 51 | 1016.3 |
| 20260504033529 | 63 | 0 | 0.0 | 0.0 | 0.00 | 0.00 | 0.00 | 51 | 1016.3 |
| 20260504033046 | 63 | 0 | 0.0 | 0.0 | 0.00 | 0.00 | 0.00 | 51 | 1016.2 |
| 20260504032530 | 63 | 0 | 0.0 | 0.0 | 0.00 | 0.00 | 0.00 | 51 | 1016.2 |
| 20260504032032 | 63 | 0 | 0.0 | 0.0 | 0.00 | 0.00 | 0.00 | 51 | 1016.2 |
| 20260504031549 | 64 | 0 | 0.0 | 0.0 | 0.00 | 0.00 | 0.00 | 51 | 1016.2 |
| 20260504031029 | 64 | 0 | 0.0 | 0.0 | 0.00 | 0.00 | 0.00 | 51 | 1016.1 |
| 20260504030530 | 64 | 0 | 0.0 | 0.0 | 0.00 | 0.00 | 0.00 | 51 | 1016.0 |
| 20260504030042 | 64 | 0 | 0.0 | 0.0 | 0.00 | 0.00 | 0.00 | 51 | 1016.0 |
| 20260504025529 | 64 | 0 | 0.0 | 0.0 | 0.00 | 0.00 | 0.00 | 51 | 1016.0 |
| 20260504025029 | 64 | 0 | 0.0 | 0.0 | 0.00 | 0.00 | 0.00 | 51 | 1016.0 |
| 20260504024550 | 65 | 0 | 0.0 | 0.0 | 0.00 | 0.00 | 0.00 | 50 | 1016.1 |
| 20260504024029 | 65 | 0 | 0.0 | 1.0 | 0.00 | 0.00 | 0.00 | 50 | 1016.1 |
| 20260504023529 | 65 | 0 | 0.0 | 1.0 | 0.00 | 0.00 | 0.00 | 50 | 1016.1 |
| 20260504023048 | 65 | 0 | 0.0 | 1.0 | 0.00 | 0.00 | 0.00 | 50 | 1016.1 |
| 20260504022550 | 65 | 0 | 0.0 | 0.0 | 0.00 | 0.00 | 0.00 | 50 | 1016.0 |
| 20260504022032 | 66 | 0 | 0.0 | 0.0 | 0.00 | 0.00 | 0.00 | 50 | 1016.1 |
| 20260504021547 | 66 | 0 | 0.0 | 0.0 | 0.00 | 0.00 | 0.00 | 49 | 1016.1 |
| 20260504021030 | 66 | 0 | 0.0 | 0.0 | 0.00 | 0.00 | 0.00 | 49 | 1016.1 |
| 20260504020528 | 66 | 0 | 0.0 | 0.0 | 0.00 | 0.00 | 0.00 | 49 | 1016.1 |
| 20260504020042 | 67 | 0 | 0.0 | 0.0 | 0.00 | 0.00 | 0.00 | 48 | 1016.1 |
| 20260504015530 | 67 | 0 | 0.0 | 0.0 | 0.00 | 0.00 | 0.00 | 47 | 1016.1 |
| 20260504015032 | 67 | 0 | 0.0 | 0.0 | 0.00 | 0.00 | 0.00 | 46 | 1016.1 |
| 20260504014545 | 68 | 0 | 0.0 | 0.0 | 0.00 | 0.00 | 0.00 | 46 | 1016.1 |
| 20260504014032 | 68 | 0 | 0.0 | 0.0 | 0.00 | 0.00 | 0.00 | 45 | 1015.9 |
| 20260504013530 | 68 | 0 | 0.0 | 0.0 | 0.00 | 0.00 | 0.00 | 44 | 1015.8 |
| 20260504013051 | 69 | 0 | 0.0 | 0.0 | 0.00 | 0.00 | 0.00 | 44 | 1015.7 |
| 20260504012531 | 69 | 0 | 0.0 | 0.0 | 0.00 | 0.00 | 0.00 | 43 | 1015.8 |
| 20260504012031 | 70 | 0 | 0.0 | 0.0 | 0.00 | 0.00 | 0.00 | 42 | 1015.8 |
| 20260504011547 | 70 | 0 | 0.0 | 0.0 | 0.00 | 0.00 | 0.00 | 41 | 1015.8 |
| 20260504011030 | 71 | 0 | 0.0 | 0.0 | 0.00 | 0.00 | 0.00 | 39 | 1015.9 |
| 20260504010529 | 72 | 0 | 0.0 | 0.0 | 0.00 | 0.00 | 0.00 | 38 | 1015.9 |
| 20260504010057 | 72 | 0 | 0.0 | 2.0 | 0.00 | 0.00 | 0.00 | 38 | 1015.9 |
| 20260504005529 | 73 | 0 | 0.0 | 2.0 | 0.00 | 0.00 | 0.00 | 36 | 1015.9 |
| 20260504005030 | 73 | 0 | 0.0 | 1.0 | 0.00 | 0.00 | 0.00 | 35 | 1015.8 |
| 20260504004542 | 74 | 0 | 0.0 | 2.0 | 0.00 | 0.00 | 0.00 | 34 | 1015.9 |
| 20260504004031 | 74 | 0 | 0.0 | 3.0 | 0.00 | 0.00 | 0.00 | 33 | 1015.9 |
| 20260504003530 | 75 | 0 | 0.0 | 3.0 | 0.00 | 0.00 | 0.00 | 31 | 1015.8 |
| 20260504003041 | 75 | 0 | 0.0 | 3.0 | 0.00 | 0.00 | 0.00 | 31 | 1015.8 |
| 20260504002529 | 76 | 0 | 0.0 | 3.0 | 0.00 | 0.00 | 0.00 | 31 | 1015.8 |
| 20260504002029 | 76 | 0 | 0.0 | 4.0 | 0.00 | 0.00 | 0.00 | 30 | 1015.9 |
| 20260504001541 | 76 | 40 | 0.0 | 4.0 | 0.00 | 0.00 | 0.00 | 29 | 1016.0 |
| 20260504001031 | 77 | 0 | 0.0 | 4.0 | 0.00 | 0.00 | 0.00 | 29 | 1016.1 |
| 20260504000531 | 77 | 40 | 1.0 | 5.0 | 0.00 | 0.00 | 0.00 | 28 | 1016.0 |
| 20260504000047 | 77 | 40 | 0.0 | 5.0 | 0.00 | 0.00 | 0.00 | 27 | 1016.1 |
| 20260503235530 | 78 | 40 | 0.0 | 5.0 | 0.00 | 0.00 | 0.00 | 29 | 1016.0 |
| 20260503235029 | 78 | 0 | 0.0 | 5.0 | 0.00 | 0.00 | 0.00 | 29 | 1016.0 |
| 20260503234542 | 78 | 0 | 0.0 | 5.0 | 0.00 | 0.00 | 0.00 | 27 | 1016.1 |
| 20260503234029 | 78 | 39 | 0.0 | 5.0 | 0.00 | 0.00 | 0.00 | 28 | 1016.1 |
| 20260503233529 | 79 | 0 | 0.0 | 5.0 | 0.00 | 0.00 | 0.00 | 29 | 1016.1 |
| 20260503233046 | 79 | 39 | 0.0 | 5.0 | 0.00 | 0.00 | 0.00 | 28 | 1016.2 |
| 20260503232529 | 79 | 0 | 2.0 | 5.0 | 0.00 | 0.00 | 0.00 | 25 | 1016.3 |
| 20260503232111 | 79 | 0 | 0.0 | 5.0 | 0.00 | 0.00 | 0.00 | 27 | 1016.3 |
| 20260503231541 | 80 | 0 | 1.0 | 5.0 | 0.00 | 0.00 | 0.00 | 26 | 1016.3 |
| 20260503231030 | 80 | 39 | 0.0 | 4.0 | 0.00 | 0.00 | 0.00 | 26 | 1016.3 |
| 20260503230530 | 80 | 40 | 1.0 | 4.0 | 0.00 | 0.00 | 0.00 | 25 | 1016.3 |
| 20260503230054 | 80 | 40 | 1.0 | 4.0 | 0.00 | 0.00 | 0.00 | 24 | 1016.4 |
| 20260503225529 | 81 | 0 | 0.0 | 5.0 | 0.00 | 0.00 | 0.00 | 26 | 1016.5 |
| 20260503225031 | 80 | 0 | 0.0 | 5.0 | 0.00 | 0.00 | 0.00 | 24 | 1016.5 |